Accueil
METAR-TAF:

METAR-TAF

Aéroports :

Vancouver, Washington, États-Unis

Pearson Field

latitude: 45-37-24N, longitude: 122-39-23W, altitude: 7 m

Observation

Le bulletin a été fait il y a 1 heure et 3 minutes, à 14:53 UTC
Vent 5 kt de est/sud-est
Température 1°C
Humidité 80%
Pression 1023 hPa
Visibilité: 16.1 km
Nuages fragmentés à une hauteur de 1900 ft
Ciel couvert à une hauteur de 6000 ft

METAR: KVUO 201453Z AUTO 12005KT 10SM BKN019 OVC060 01/M02 A3021 RMK AO2 SLP230 T00061022 56005

Heure: 07:56 (15:56 UTC)


TAF: absent

Observations et prévisions météorologiques de plus de 4000 aéroports (messages METAR et TAF).

Les stations disponibles sont représentées par des disques jaunes et rouges sur la carte.

Passer la souris dessus pour voir le nom de la station.

Cliquer dessus pour voir les observations et prévisions météorologiques.

Pour changer de carte: cliquez sur les boutons verts avec une croix noire pour zoomer, sur le bouton vert avec un tiret pour effectuer un zoom arrière, ou sur les flèches vertes pour les cartes adjacentes.


METAR-TAF: